BEIDOU-3 M17

Last updated on Wed May 15 2019 03:07:46 GMT+0000 (Coordinated Universal Time)

1 43706U 18093A 19134.36240559 -.00000052 00000-0 00000+0 0 9990 2 43706 54.8774 270.6931 0008413 251.7579 1.5737 1.86231626 3277
UTC large
Height (km)
Speed (km/s)
/
Latitude / Longitude
Inclination (degrees)
Orbital Period (minutes)
Azimuth
Elevation
Range (km)
Doppler Factor

Next 0 passes for location: London (51.5072 / 0.1276)

Sorry there are no passes over London.